TimeCST,TemperatureF,Dew PointF,Humidity,Sea Level PressureIn,VisibilityMPH,Wind Direction,Wind SpeedMPH,Gust SpeedMPH,PrecipitationIn,Events,Conditions,WindDirDegrees,DateUTC
12:15 AM,-5.8,-14.8,65,30.30,10.0,WNW,12.7,-,N/A,,Clear,300,2013-02-01 06:15:00
12:35 AM,-5.8,-14.8,65,30.30,10.0,WNW,15.0,-,N/A,,Clear,300,2013-02-01 06:35:00
1:15 AM,-5.8,-29.2,32,30.30,10.0,WNW,11.5,-,N/A,,Clear,300,2013-02-01 07:15:00
1:35 AM,-5.8,-27.4,35,30.30,10.0,WNW,11.5,-,N/A,,Clear,300,2013-02-01 07:35:00
1:55 AM,-5.8,-25.6,38,30.30,10.0,WNW,8.1,-,N/A,,Clear,300,2013-02-01 07:55:00
2:15 AM,-5.8,-25.6,38,30.30,10.0,WNW,8.1,-,N/A,,Clear,290,2013-02-01 08:15:00
2:35 AM,-5.8,-23.8,42,30.30,10.0,NW,6.9,-,N/A,,Clear,310,2013-02-01 08:35:00
2:55 AM,-5.8,-23.8,42,30.31,10.0,WNW,10.4,-,N/A,,Clear,290,2013-02-01 08:55:00
3:15 AM,-5.8,-23.8,42,30.30,10.0,WNW,10.4,-,N/A,,Clear,290,2013-02-01 09:15:00
3:35 AM,-5.8,-23.8,42,30.30,10.0,WNW,6.9,-,N/A,,Clear,290,2013-02-01 09:35:00
3:55 AM,-5.8,-22.0,46,30.30,10.0,West,6.9,-,N/A,,Clear,280,2013-02-01 09:55:00
4:15 AM,-5.8,-22.0,46,30.30,10.0,West,5.8,-,N/A,,Clear,270,2013-02-01 10:15:00
4:35 AM,-5.8,-22.0,46,30.30,10.0,WNW,6.9,-,N/A,,Clear,290,2013-02-01 10:35:00
4:55 AM,-5.8,-20.2,50,30.30,10.0,WNW,5.8,-,N/A,,Clear,290,2013-02-01 10:55:00
5:15 AM,-5.8,-20.2,50,30.30,10.0,West,5.8,-,N/A,,Clear,280,2013-02-01 11:15:00
5:35 AM,-5.8,-20.2,50,30.30,10.0,WNW,6.9,-,N/A,,Clear,290,2013-02-01 11:35:00
6:15 AM,-5.8,-20.2,50,30.28,10.0,WNW,3.5,-,N/A,,Clear,300,2013-02-01 12:15:00
6:35 AM,-5.8,-20.2,50,30.27,10.0,Calm,Calm,-,N/A,,Clear,0,2013-02-01 12:35:00
6:55 AM,-5.8,-20.2,50,30.27,10.0,WNW,5.8,-,N/A,,Clear,290,2013-02-01 12:55:00
7:15 AM,-5.8,-20.2,50,30.28,10.0,West,4.6,-,N/A,,Clear,270,2013-02-01 13:15:00
7:35 AM,-5.8,-20.2,50,30.27,10.0,Calm,Calm,-,N/A,,Clear,0,2013-02-01 13:35:00
7:55 AM,-5.8,-18.4,55,30.27,10.0,Calm,Calm,-,N/A,,Clear,0,2013-02-01 13:55:00
8:15 AM,-4.0,-18.4,50,30.26,10.0,Calm,Calm,-,N/A,,Clear,0,2013-02-01 14:15:00
8:35 AM,-2.2,-18.4,46,30.27,10.0,SSW,4.6,-,N/A,,Clear,200,2013-02-01 14:35:00
8:55 AM,-2.2,-18.4,46,30.27,10.0,SSW,6.9,-,N/A,,Clear,210,2013-02-01 14:55:00
9:15 AM,-2.2,-16.6,50,30.26,10.0,SSW,5.8,-,N/A,,Clear,210,2013-02-01 15:15:00
9:35 AM,-0.4,-16.6,46,30.26,10.0,SSW,5.8,-,0.01,,Clear,200,2013-02-01 15:35:00
9:55 AM,-0.4,-14.8,51,30.25,10.0,SW,5.8,-,0.01,,Clear,220,2013-02-01 15:55:00
10:15 AM,1.4,-14.8,47,30.25,10.0,SW,8.1,-,N/A,,Clear,220,2013-02-01 16:15:00
10:35 AM,3.2,-14.8,43,30.25,10.0,SSW,6.9,-,N/A,,Clear,210,2013-02-01 16:35:00
10:55 AM,3.2,-13.0,47,30.23,10.0,SW,8.1,-,N/A,,Clear,230,2013-02-01 16:55:00
11:15 AM,5.0,-13.0,43,30.22,10.0,SSW,6.9,-,N/A,,Mostly Cloudy,200,2013-02-01 17:15:00
11:35 AM,6.8,-11.2,44,30.22,10.0,South,9.2,-,N/A,,Overcast,190,2013-02-01 17:35:00
12:15 PM,8.6,-9.4,44,30.20,10.0,South,11.5,-,N/A,,Overcast,190,2013-02-01 18:15:00
12:35 PM,10.4,-9.4,41,30.18,10.0,South,8.1,-,N/A,,Scattered Clouds,190,2013-02-01 18:35:00
12:55 PM,12.2,-7.6,41,30.17,10.0,South,10.4,-,N/A,,Clear,170,2013-02-01 18:55:00
1:15 PM,12.2,-7.6,41,30.15,10.0,South,9.2,-,N/A,,Mostly Cloudy,170,2013-02-01 19:15:00
1:35 PM,14.0,-7.6,38,30.13,10.0,South,12.7,-,N/A,,Overcast,180,2013-02-01 19:35:00
1:55 PM,15.8,-5.8,38,30.10,10.0,South,15.0,-,N/A,,Overcast,170,2013-02-01 19:55:00
2:15 PM,15.8,-5.8,38,30.09,10.0,South,16.1,19.6,N/A,,Overcast,170,2013-02-01 20:15:00
2:35 PM,15.8,-4.0,41,30.08,10.0,South,17.3,-,N/A,,Overcast,180,2013-02-01 20:35:00
2:55 PM,17.6,-2.2,42,30.08,10.0,South,17.3,20.7,N/A,,Overcast,180,2013-02-01 20:55:00
3:15 PM,15.8,-2.2,45,30.07,10.0,South,16.1,-,N/A,,Overcast,190,2013-02-01 21:15:00
3:35 PM,15.8,-2.2,45,30.06,10.0,South,16.1,20.7,N/A,,Overcast,190,2013-02-01 21:35:00
3:55 PM,15.8,-0.4,49,30.05,10.0,South,13.8,-,N/A,,Overcast,180,2013-02-01 21:55:00
4:15 PM,15.8,-0.4,49,30.04,10.0,South,15.0,-,N/A,,Overcast,180,2013-02-01 22:15:00
4:35 PM,15.8,-0.4,49,30.03,10.0,South,19.6,-,N/A,,Overcast,180,2013-02-01 22:35:00
4:55 PM,15.8,-18.4,21,30.03,5.0,South,17.3,-,N/A,,Overcast,180,2013-02-01 22:55:00
5:15 PM,15.8,-22.0,17,30.02,7.0,South,13.8,-,N/A,,Overcast,170,2013-02-01 23:15:00
5:35 PM,15.8,-16.6,23,30.02,8.0,South,12.7,-,N/A,,Overcast,170,2013-02-01 23:35:00
5:55 PM,15.8,-11.2,30,30.00,10.0,South,15.0,-,N/A,,Overcast,170,2013-02-01 23:55:00
6:15 PM,17.6,-5.8,35,30.03,10.0,South,8.1,-,N/A,,Overcast,180,2013-02-02 00:15:00
6:35 PM,17.6,-2.2,42,30.02,10.0,South,10.4,-,N/A,,Overcast,180,2013-02-02 00:35:00
6:55 PM,17.6,-0.4,45,30.01,10.0,South,8.1,-,N/A,,Overcast,170,2013-02-02 00:55:00
7:15 PM,17.6,-0.4,45,30.01,10.0,SSE,8.1,-,N/A,,Overcast,160,2013-02-02 01:15:00
7:35 PM,17.6,1.4,49,30.01,10.0,SSE,8.1,-,N/A,,Overcast,160,2013-02-02 01:35:00
7:55 PM,17.6,1.4,49,30.00,10.0,SSE,6.9,-,N/A,,Overcast,150,2013-02-02 01:55:00
8:15 PM,17.6,3.2,53,30.00,10.0,SE,6.9,-,N/A,,Overcast,130,2013-02-02 02:15:00
8:35 PM,17.6,3.2,53,30.00,10.0,SSE,6.9,-,N/A,,Overcast,150,2013-02-02 02:35:00
8:55 PM,17.6,-9999,N/A,29.99,10.0,SSE,6.9,-,N/A,,Overcast,150,2013-02-02 02:55:00
9:15 PM,17.6,-20.2,18,29.99,10.0,SE,5.8,-,N/A,,Overcast,140,2013-02-02 03:15:00
9:35 PM,17.6,-13.0,25,29.99,10.0,SSE,4.6,-,N/A,,Overcast,150,2013-02-02 03:35:00
9:55 PM,19.4,-7.6,30,29.99,10.0,Calm,Calm,-,N/A,,Overcast,0,2013-02-02 03:55:00
10:15 PM,19.4,-2.2,39,29.98,10.0,SSE,3.5,-,N/A,,Overcast,150,2013-02-02 04:15:00
10:35 PM,19.4,-9999,N/A,29.98,10.0,SE,3.5,-,N/A,,Overcast,140,2013-02-02 04:35:00
10:55 PM,19.4,-14.8,21,29.99,10.0,SSE,3.5,-,N/A,,Overcast,150,2013-02-02 04:55:00
11:15 PM,19.4,-7.6,30,29.99,10.0,SSE,3.5,-,N/A,,Overcast,160,2013-02-02 05:15:00
11:35 PM,17.6,-14.8,23,29.99,10.0,Calm,Calm,-,N/A,,Overcast,0,2013-02-02 05:35:00
11:55 PM,19.4,10.4,68,30.00,10.0,Calm,Calm,-,N/A,,Overcast,0,2013-02-02 05:55:00